Total_Precipitation_Accumulation
0.20 0.17 0.24 0.26 0.24 0.27 0.35 0.33 0.24 0.11 0.09 0.10 0.11 0.12 0.13 0.13 0.12 0.10 0.07 0.07 0.06 0.06 0.06 0.07 0.09 0.10 0.12 0.18 0.28 0.35 0.35 0.38 0.36 0.43 0.52 0.53 0.51 0.49 0.49 0.51 0.51 0.52 0.50 0.42
0.17 0.12 0.17 0.20 0.16 0.17 0.19 0.14 0.11 0.09 0.10 0.11 0.13 0.13 0.13 0.12 0.11 0.12 0.09 0.07 0.06 0.06 0.06 0.08 0.11 0.11 0.10 0.14 0.23 0.33 0.33 0.36 0.36 0.40 0.48 0.52 0.49 0.48 0.48 0.49 0.48 0.44 0.44 0.43
0.29 0.15 0.27 0.30 0.17 0.15 0.15 0.13 0.12 0.12 0.13 0.12 0.13 0.14 0.15 0.13 0.12 0.11 0.09 0.08 0.06 0.06 0.06 0.08 0.13 0.11 0.11 0.12 0.19 0.31 0.32 0.34 0.38 0.39 0.42 0.49 0.50 0.49 0.48 0.48 0.47 0.43 0.40 0.39
0.43 0.37 0.57 0.29 0.13 0.12 0.14 0.15 0.13 0.12 0.10 0.11 0.14 0.15 0.17 0.15 0.14 0.10 0.09 0.08 0.06 0.06 0.06 0.08 0.11 0.10 0.10 0.12 0.18 0.28 0.33 0.32 0.36 0.37 0.37 0.45 0.49 0.48 0.48 0.47 0.43 0.40 0.39 0.37
0.58 0.48 0.27 0.15 0.15 0.18 0.24 0.23 0.15 0.11 0.07 0.06 0.09 0.14 0.18 0.14 0.11 0.10 0.10 0.09 0.08 0.07 0.07 0.08 0.11 0.11 0.10 0.12 0.16 0.24 0.30 0.29 0.32 0.34 0.34 0.39 0.44 0.46 0.45 0.47 0.43 0.37 0.35 0.37
0.60 0.47 0.23 0.17 0.13 0.15 0.23 0.31 0.17 0.11 0.08 0.07 0.10 0.18 0.19 0.14 0.11 0.10 0.08 0.08 0.08 0.08 0.08 0.10 0.11 0.11 0.10 0.12 0.13 0.20 0.26 0.24 0.29 0.30 0.29 0.33 0.36 0.41 0.43 0.43 0.43 0.40 0.35 0.35
0.52 0.39 0.14 0.12 0.15 0.17 0.35 0.38 0.17 0.12 0.10 0.10 0.13 0.16 0.14 0.13 0.13 0.10 0.09 0.08 0.08 0.08 0.09 0.11 0.12 0.12 0.11 0.11 0.10 0.15 0.23 0.22 0.26 0.27 0.26 0.29 0.33 0.34 0.39 0.42 0.40 0.41 0.38 0.35
0.45 0.41 0.18 0.14 0.21 0.35 0.38 0.19 0.12 0.10 0.08 0.08 0.08 0.07 0.07 0.10 0.12 0.12 0.10 0.09 0.09 0.08 0.10 0.10 0.11 0.12 0.11 0.10 0.10 0.15 0.21 0.22 0.24 0.25 0.26 0.29 0.31 0.29 0.32 0.40 0.41 0.41 0.41 0.40
0.40 0.23 0.12 0.13 0.21 0.23 0.18 0.14 0.10 0.08 0.07 0.07 0.06 0.06 0.07 0.09 0.11 0.12 0.11 0.11 0.12 0.11 0.10 0.10 0.09 0.11 0.12 0.11 0.12 0.17 0.20 0.20 0.22 0.24 0.27 0.30 0.30 0.28 0.31 0.37 0.40 0.40 0.42 0.40
0.23 0.11 0.08 0.09 0.11 0.11 0.09 0.08 0.08 0.08 0.08 0.07 0.07 0.06 0.07 0.08 0.10 0.11 0.12 0.12 0.13 0.12 0.10 0.10 0.10 0.10 0.12 0.12 0.13 0.19 0.19 0.17 0.19 0.24 0.30 0.35 0.32 0.28 0.28 0.34 0.42 0.42 0.42 0.39
0.15 0.07 0.09 0.09 0.08 0.07 0.06 0.06 0.07 0.07 0.06 0.06 0.07 0.07 0.07 0.07 0.09 0.11 0.12 0.12 0.11 0.11 0.10 0.10 0.10 0.12 0.14 0.14 0.16 0.20 0.18 0.16 0.19 0.23 0.32 0.38 0.35 0.30 0.28 0.28 0.42 0.49 0.44 0.41
0.12 0.07 0.10 0.09 0.07 0.06 0.06 0.06 0.07 0.07 0.06 0.05 0.05 0.06 0.07 0.07 0.08 0.11 0.14 0.13 0.11 0.10 0.10 0.11 0.12 0.15 0.19 0.17 0.17 0.20 0.19 0.18 0.21 0.24 0.30 0.36 0.36 0.36 0.41 0.37 0.40 0.40 0.39 0.41
0.06 0.05 0.05 0.06 0.06 0.06 0.07 0.06 0.06 0.08 0.08 0.06 0.05 0.06 0.07 0.07 0.07 0.11 0.13 0.12 0.11 0.11 0.11 0.13 0.15 0.18 0.22 0.21 0.20 0.21 0.21 0.22 0.24 0.26 0.29 0.34 0.35 0.36 0.41 0.46 0.46 0.41 0.37 0.38
0.03 0.03 0.03 0.04 0.06 0.07 0.07 0.06 0.05 0.06 0.07 0.07 0.07 0.06 0.05 0.07 0.08 0.11 0.14 0.14 0.12 0.12 0.14 0.16 0.17 0.20 0.23 0.24 0.24 0.23 0.22 0.25 0.28 0.27 0.30 0.35 0.35 0.35 0.38 0.40 0.40 0.39 0.40 0.40
0.02 0.03 0.03 0.03 0.04 0.06 0.08 0.07 0.06 0.06 0.08 0.08 0.07 0.06 0.06 0.07 0.09 0.14 0.17 0.16 0.15 0.14 0.16 0.18 0.20 0.24 0.26 0.27 0.26 0.24 0.25 0.26 0.30 0.29 0.31 0.34 0.35 0.36 0.38 0.38 0.36 0.34 0.37 0.43
0.04 0.03 0.02 0.02 0.03 0.05 0.08 0.08 0.07 0.07 0.08 0.09 0.07 0.06 0.06 0.07 0.09 0.13 0.17 0.20 0.19 0.18 0.18 0.19 0.22 0.27 0.29 0.31 0.30 0.27 0.29 0.34 0.36 0.32 0.33 0.36 0.38 0.39 0.40 0.40 0.39 0.36 0.36 0.39
0.05 0.04 0.03 0.03 0.03 0.05 0.07 0.09 0.08 0.07 0.08 0.09 0.08 0.07 0.06 0.08 0.10 0.12 0.15 0.18 0.19 0.21 0.20 0.20 0.24 0.28 0.32 0.34 0.33 0.31 0.33 0.35 0.40 0.36 0.35 0.40 0.43 0.44 0.44 0.45 0.44 0.39 0.33 0.36
0.04 0.04 0.04 0.04 0.04 0.04 0.06 0.08 0.08 0.07 0.08 0.09 0.08 0.07 0.08 0.10 0.12 0.13 0.16 0.19 0.20 0.21 0.22 0.24 0.28 0.31 0.32 0.36 0.37 0.35 0.35 0.37 0.39 0.40 0.40 0.42 0.46 0.47 0.48 0.48 0.46 0.43 0.37 0.38
0.02 0.03 0.04 0.03 0.03 0.04 0.04 0.06 0.07 0.06 0.08 0.08 0.09 0.10 0.11 0.11 0.13 0.14 0.16 0.18 0.21 0.24 0.27 0.29 0.33 0.33 0.33 0.39 0.42 0.38 0.39 0.43 0.45 0.47 0.43 0.47 0.50 0.49 0.49 0.50 0.48 0.44 0.41 0.40
0.02 0.03 0.03 0.03 0.03 0.03 0.04 0.05 0.07 0.07 0.08 0.09 0.10 0.11 0.12 0.12 0.14 0.16 0.17 0.18 0.22 0.29 0.31 0.35 0.36 0.38 0.39 0.40 0.44 0.45 0.48 0.49 0.50 0.53 0.50 0.49 0.50 0.53 0.52 0.50 0.49 0.47 0.46 0.43
0.03 0.04 0.05 0.04 0.04 0.03 0.04 0.05 0.08 0.09 0.09 0.11 0.12 0.13 0.14 0.14 0.16 0.17 0.18 0.19 0.21 0.29 0.33 0.39 0.42 0.45 0.44 0.45 0.49 0.52 0.55 0.54 0.54 0.57 0.56 0.54 0.53 0.54 0.53 0.52 0.50 0.48 0.47 0.46
0.05 0.06 0.06 0.06 0.05 0.05 0.05 0.06 0.09 0.11 0.12 0.13 0.13 0.14 0.15 0.15 0.17 0.18 0.19 0.22 0.24 0.31 0.37 0.42 0.47 0.52 0.54 0.53 0.50 0.53 0.56 0.55 0.56 0.56 0.56 0.55 0.55 0.57 0.55 0.54 0.54 0.49 0.47 0.47
0.08 0.08 0.09 0.08 0.07 0.07 0.07 0.08 0.10 0.13 0.15 0.16 0.17 0.17 0.18 0.18 0.19 0.20 0.23 0.25 0.27 0.35 0.41 0.46 0.54 0.60 0.63 0.54 0.51 0.54 0.58 0.57 0.57 0.59 0.59 0.56 0.56 0.56 0.57 0.56 0.54 0.52 0.52 0.50
0.12 0.13 0.12 0.11 0.10 0.10 0.11 0.12 0.12 0.15 0.19 0.21 0.22 0.23 0.23 0.22 0.23 0.24 0.27 0.31 0.34 0.40 0.46 0.54 0.61 0.64 0.66 0.59 0.54 0.57 0.61 0.59 0.57 0.60 0.62 0.60 0.59 0.58 0.56 0.57 0.57 0.52 0.50 0.49
0.17 0.17 0.16 0.16 0.17 0.17 0.17 0.17 0.17 0.20 0.23 0.25 0.26 0.26 0.28 0.27 0.27 0.28 0.30 0.34 0.39 0.44 0.49 0.55 0.61 0.65 0.65 0.63 0.59 0.61 0.62 0.61 0.62 0.66 0.67 0.64 0.62 0.61 0.58 0.54 0.52 0.51 0.51 0.49
0.22 0.22 0.22 0.22 0.23 0.23 0.22 0.22 0.23 0.25 0.26 0.28 0.28 0.29 0.32 0.33 0.33 0.33 0.35 0.38 0.42 0.47 0.50 0.53 0.58 0.64 0.65 0.65 0.63 0.63 0.63 0.66 0.68 0.66 0.63 0.62 0.60 0.59 0.56 0.52 0.48 0.48 0.49 0.48
0.29 0.27 0.27 0.28 0.29 0.29 0.28 0.28 0.29 0.31 0.31 0.32 0.33 0.33 0.34 0.35 0.35 0.36 0.38 0.41 0.44 0.48 0.51 0.54 0.58 0.63 0.66 0.67 0.68 0.68 0.67 0.66 0.65 0.64 0.64 0.62 0.59 0.55 0.53 0.50 0.49 0.48 0.48 0.47